Location: Neuvy Saint Sepulchre
(46.5953°N, 1.8122°E)
Time: 13:06:30
(UTC+02:00)

ISS - Pass Details

Date: 01 October 2022
Orbit: 414 x 417 km, 51.6° (Epoch: 01 October)

Event Time Altitude Azimuth Distance (km) Brightness Sun altitude
Rises 22:05:06 0° 288° (WNW) 2,360 1.4 -26.3°
Reaches altitude 10° 22:07:38 10° 269° (W) 1,493 -0.2 -26.7°
Enters shadow 22:08:51 16° 250° (WSW) 1,200 -1.0 -26.9°
